TimeMST,TemperatureF,Dew PointF,Humidity,Sea Level PressureIn,VisibilityMPH,Wind Direction,Wind SpeedMPH,Gust SpeedMPH,PrecipitationIn,Events,Conditions,WindDirDegrees,DateUTC
12:53 AM,30.0,19.9,66,30.40,10.0,WNW,12.7,-,N/A,,Clear,300,2013-01-17 07:53:00
1:53 AM,28.0,19.9,72,30.42,10.0,WNW,9.2,-,N/A,,Clear,290,2013-01-17 08:53:00
2:53 AM,28.0,19.0,69,30.43,10.0,WNW,9.2,-,N/A,,Clear,300,2013-01-17 09:53:00
3:53 AM,26.1,18.0,71,30.45,10.0,WNW,9.2,-,N/A,,Clear,290,2013-01-17 10:53:00
4:53 AM,24.8,17.6,74,30.38,10.0,NW,6.9,-,N/A,,Clear,310,2013-01-17 11:53:00
5:53 AM,24.1,17.1,75,30.48,10.0,WNW,6.9,-,N/A,,Clear,300,2013-01-17 12:53:00
6:53 AM,26.1,17.1,69,30.49,10.0,NW,13.8,-,N/A,,Clear,310,2013-01-17 13:53:00
7:53 AM,27.0,17.1,66,30.51,10.0,WNW,5.8,-,N/A,,Clear,290,2013-01-17 14:53:00
8:53 AM,30.9,18.0,59,30.53,10.0,NW,8.1,-,N/A,,Clear,320,2013-01-17 15:53:00
9:53 AM,36.0,19.9,52,30.53,10.0,NW,6.9,-,N/A,,Clear,310,2013-01-17 16:53:00
10:53 AM,39.9,23.0,51,30.50,10.0,West,6.9,-,N/A,,Clear,280,2013-01-17 17:53:00
11:53 AM,42.1,25.0,51,30.46,10.0,West,8.1,-,N/A,,Clear,260,2013-01-17 18:53:00
12:53 PM,46.0,26.1,46,30.44,10.0,WNW,5.8,-,N/A,,Clear,300,2013-01-17 19:53:00
1:53 PM,48.0,25.0,41,30.41,10.0,West,3.5,-,N/A,,Clear,260,2013-01-17 20:53:00
2:53 PM,48.9,23.0,36,30.39,10.0,Calm,Calm,-,N/A,,Clear,0,2013-01-17 21:53:00
3:53 PM,46.9,24.1,41,30.39,10.0,Calm,Calm,-,N/A,,Clear,0,2013-01-17 22:53:00
4:53 PM,39.9,24.1,53,30.40,10.0,South,5.8,-,N/A,,Clear,180,2013-01-17 23:53:00
5:53 PM,30.9,23.0,72,30.40,10.0,South,5.8,-,N/A,,Clear,170,2013-01-18 00:53:00
6:53 PM,33.1,23.0,66,30.38,10.0,South,6.9,-,N/A,,Clear,170,2013-01-18 01:53:00
7:53 PM,37.0,21.9,54,30.35,10.0,South,10.4,-,N/A,,Clear,190,2013-01-18 02:53:00
8:53 PM,34.0,21.9,61,30.33,10.0,SW,6.9,-,N/A,,Clear,220,2013-01-18 03:53:00
9:53 PM,34.0,21.9,61,30.29,10.0,SW,12.7,-,N/A,,Clear,220,2013-01-18 04:53:00
10:53 PM,34.0,23.0,64,30.26,10.0,SW,10.4,-,N/A,,Clear,220,2013-01-18 05:53:00
11:53 PM,30.9,21.9,69,30.23,10.0,WSW,10.4,-,N/A,,Clear,240,2013-01-18 06:53:00